�������l�o���
Date,Time,MP-1(��Sv/h),MP-2(��Sv/h),MP-3(��Sv/h),MP-4(��Sv/h),MP-5(��Sv/h),MP-6(��Sv/h),MP-7(��Sv/h),MP-8(��Sv/h),����,����(m/s),���J
2023/11/20,00:00,0.515,0.781,0.487,0.974,0.698,0.315,0.566,0.527,���쐼,7.6,��
2023/11/20,00:10,0.514,0.780,0.486,0.973,0.696,0.315,0.565,0.527,���쐼,8.2,��
2023/11/20,00:20,0.515,0.780,0.488,0.974,0.698,0.315,0.566,0.525,���쐼,7.5,��
2023/11/20,00:30,0.515,0.777,0.485,0.976,0.697,0.316,0.565,0.526,��,7.7,��
2023/11/20,00:40,0.515,0.781,0.486,0.973,0.698,0.315,0.567,0.527,���쐼,8.2,��
2023/11/20,00:50,0.515,0.781,0.488,0.975,0.696,0.316,0.566,0.526,���쐼,8.3,��
2023/11/20,01:00,0.515,0.780,0.486,0.975,0.697,0.317,0.565,0.525,���쐼,8.6,��
2023/11/20,01:10,0.513,0.779,0.487,0.974,0.699,0.317,0.566,0.525,���쐼,8.1,��
2023/11/20,01:20,0.515,0.781,0.487,0.976,0.700,0.317,0.568,0.525,���쐼,8.2,��
2023/11/20,01:30,0.516,0.779,0.487,0.974,0.699,0.315,0.567,0.526,���쐼,8.2,��
2023/11/20,01:40,0.515,0.781,0.487,0.975,0.698,0.316,0.567,0.525,��,7.9,��
2023/11/20,01:50,0.517,0.781,0.488,0.976,0.698,0.316,0.567,0.527,���쐼,7.6,��
2023/11/20,02:00,0.515,0.778,0.487,0.975,0.696,0.316,0.567,0.527,���쐼,6.5,��
2023/11/20,02:10,0.516,0.781,0.488,0.974,0.698,0.316,0.568,0.527,���쐼,7.3,��
2023/11/20,02:20,0.516,0.781,0.487,0.976,0.698,0.316,0.566,0.526,���쐼,5.5,��
2023/11/20,02:30,0.516,0.781,0.487,0.976,0.699,0.315,0.567,0.528,�쐼,5.9,��
2023/11/20,02:40,0.514,0.780,0.486,0.976,0.697,0.316,0.568,0.527,��쐼,5.1,��
2023/11/20,02:50,0.515,0.778,0.486,0.975,0.699,0.315,0.568,0.527,��쐼,5.5,��
2023/11/20,03:00,0.516,0.782,0.488,0.975,0.697,0.315,0.567,0.527,��쐼,5.2,��
2023/11/20,03:10,0.516,0.780,0.486,0.976,0.699,0.317,0.567,0.526,��쐼,4.9,��
2023/11/20,03:20,0.515,0.780,0.487,0.975,0.698,0.316,0.567,0.527,�쐼,4.8,��
2023/11/20,03:30,0.515,0.780,0.487,0.975,0.700,0.315,0.567,0.527,�쐼,4.1,��
2023/11/20,03:40,0.515,0.782,0.487,0.976,0.698,0.315,0.568,0.525,��쐼,4.9,��
2023/11/20,03:50,0.514,0.781,0.487,0.976,0.700,0.315,0.567,0.527,��쐼,5.2,��
2023/11/20,04:00,0.515,0.783,0.487,0.975,0.699,0.316,0.568,0.527,��쐼,6.6,��
2023/11/20,04:10,0.516,0.779,0.486,0.976,0.699,0.317,0.566,0.527,�쐼,4.9,��
2023/11/20,04:20,0.515,0.780,0.487,0.976,0.700,0.316,0.567,0.527,�쐼,6.3,��
2023/11/20,04:30,0.516,0.780,0.488,0.976,0.698,0.316,0.567,0.526,�쐼,5.0,��
2023/11/20,04:40,0.517,0.781,0.486,0.975,0.700,0.315,0.567,0.527,��쐼,2.5,��
2023/11/20,04:50,0.514,0.782,0.486,0.976,0.700,0.316,0.566,0.526,���쐼,1.2,��
2023/11/20,05:00,0.516,0.783,0.489,0.975,0.700,0.316,0.567,0.527,��쐼,3.0,��
2023/11/20,05:10,0.517,0.781,0.489,0.976,0.700,0.315,0.566,0.526,���쐼,5.0,��
2023/11/20,05:20,0.516,0.781,0.487,0.975,0.699,0.315,0.567,0.526,�쐼,5.5,��
2023/11/20,05:30,0.515,0.781,0.488,0.977,0.700,0.315,0.566,0.526,���쐼,6.1,��
2023/11/20,05:40,0.515,0.782,0.489,0.978,0.698,0.316,0.566,0.527,���쐼,5.8,��
2023/11/20,05:50,0.517,0.782,0.489,0.976,0.700,0.317,0.566,0.526,���쐼,5.8,��
2023/11/20,06:00,0.518,0.782,0.488,0.978,0.698,0.315,0.565,0.527,���쐼,7.2,��
2023/11/20,06:10,0.516,0.782,0.487,0.977,0.698,0.316,0.565,0.526,���쐼,6.6,��
2023/11/20,06:20,0.516,0.782,0.488,0.976,0.700,0.317,0.566,0.527,���쐼,6.0,��
2023/11/20,06:30,0.515,0.783,0.486,0.976,0.699,0.315,0.564,0.527,���k��,4.4,��
2023/11/20,06:40,0.516,0.781,0.487,0.976,0.700,0.316,0.566,0.527,���k��,3.7,��
2023/11/20,06:50,0.515,0.781,0.489,0.978,0.700,0.316,0.567,0.526,�k��,2.3,��
2023/11/20,07:00,0.517,0.780,0.487,0.978,0.700,0.317,0.565,0.526,�k�k��,5.0,��
2023/11/20,07:10,0.516,0.781,0.488,0.977,0.699,0.316,0.565,0.527,���k��,6.5,��
2023/11/20,07:20,0.516,0.783,0.488,0.977,0.700,0.316,0.565,0.527,���k��,7.4,�L
2023/11/20,07:30,0.516,0.782,0.488,0.978,0.701,0.316,0.564,0.526,�k��,8.1,�L
2023/11/20,07:40,0.516,0.782,0.487,0.980,0.701,0.317,0.564,0.527,���k��,8.6,�L
2023/11/20,07:50,0.518,0.783,0.489,0.977,0.700,0.317,0.565,0.528,�k��,7.1,�L
2023/11/20,08:00,0.514,0.781,0.488,0.979,0.701,0.317,0.564,0.527,���k��,8.0,��
2023/11/20,08:10,0.512,0.782,0.488,0.979,0.701,0.316,0.564,0.528,���k��,8.7,��
2023/11/20,08:20,0.512,0.784,0.489,0.977,0.701,0.316,0.563,0.527,�k��,9.5,��
2023/11/20,08:30,0.513,0.781,0.488,0.978,0.701,0.315,0.565,0.527,���k��,9.2,��
2023/11/20,08:40,0.514,0.781,0.488,0.980,0.700,0.317,0.564,0.526,���k��,9.1,��
2023/11/20,08:50,0.513,0.782,0.488,0.977,0.700,0.316,0.564,0.527,���k��,5.9,��
2023/11/20,09:00,0.514,0.781,0.488,0.977,0.700,0.316,0.563,0.528,�k��,4.5,��
2023/11/20,09:10,0.513,0.782,0.487,0.978,0.701,0.316,0.565,0.526,�k��,4.3,��
2023/11/20,09:20,0.514,0.781,0.488,0.977,0.702,0.316,0.566,0.527,���k��,5.4,��
2023/11/20,09:30,0.515,0.780,0.487,0.978,0.701,0.315,0.566,0.529,���k��,4.5,��
2023/11/20,09:40,0.513,0.781,0.489,0.979,0.701,0.315,0.564,0.528,�k��,4.2,��
2023/11/20,09:50,0.515,0.779,0.487,0.978,0.701,0.316,0.564,0.527,�k��,6.0,��
2023/11/20,10:00,0.517,0.781,0.488,0.976,0.700,0.317,0.564,0.527,�k��,8.2,�L
2023/11/20,10:10,0.514,0.782,0.488,0.978,0.701,0.315,0.565,0.528,���k��,6.8,��
2023/11/20,10:20,0.512,0.780,0.489,0.979,0.700,0.315,0.565,0.529,��,4.6,��
2023/11/20,10:30,0.514,0.781,0.487,0.976,0.699,0.314,0.563,0.529,���k��,4.4,��
2023/11/20,10:40,0.515,0.780,0.487,0.979,0.699,0.315,0.564,0.527,�k��,5.4,��
2023/11/20,10:50,0.516,0.778,0.488,0.976,0.698,0.315,0.565,0.528,�k��,4.1,��
2023/11/20,11:00,0.516,0.780,0.489,0.979,0.699,0.315,0.564,0.528,�k��,5.0,��
2023/11/20,11:10,0.514,0.780,0.488,0.980,0.699,0.314,0.566,0.528,�k��,6.6,��
2023/11/20,11:20,0.515,0.779,0.486,0.980,0.696,0.314,0.565,0.529,���k��,9.7,��
2023/11/20,11:30,0.515,0.778,0.487,0.981,0.699,0.313,0.566,0.528,���쐼,7.2,��
2023/11/20,11:40,0.515,0.778,0.487,0.980,0.699,0.314,0.564,0.528,��,10.7,��
2023/11/20,11:50,0.516,0.780,0.487,0.980,0.699,0.315,0.566,0.528,��,10.7,��
2023/11/20,12:00,0.516,0.781,0.487,0.980,0.698,0.314,0.563,0.529,��,10.9,�L
2023/11/20,12:10,0.515,0.780,0.489,0.980,0.700,0.315,0.565,0.528,��,12.2,��
2023/11/20,12:20,0.517,0.781,0.488,0.980,0.700,0.315,0.564,0.528,��,10.3,��
2023/11/20,12:30,0.517,0.780,0.488,0.981,0.699,0.316,0.564,0.527,��,9.3,��
2023/11/20,12:40,0.517,0.782,0.487,0.979,0.699,0.318,0.565,0.527,�k��,9.0,��
2023/11/20,12:50,0.515,0.781,0.488,0.980,0.698,0.315,0.565,0.527,�k��,9.9,��
2023/11/20,13:00,0.514,0.780,0.487,0.980,0.699,0.316,0.563,0.526,�k��,7.6,��
2023/11/20,13:10,0.516,0.782,0.487,0.981,0.699,0.315,0.561,0.527,���k��,10.8,�L
2023/11/20,13:20,0.515,0.780,0.488,0.981,0.701,0.315,0.565,0.527,���k��,10.9,�L
2023/11/20,13:30,0.516,0.781,0.488,0.980,0.699,0.317,0.565,0.526,�k��,8.4,��
2023/11/20,13:40,0.515,0.780,0.487,0.981,0.700,0.316,0.563,0.526,�k��,8.9,��
2023/11/20,13:50,0.515,0.781,0.487,0.979,0.700,0.317,0.563,0.527,�k��,6.6,��
2023/11/20,14:00,0.516,0.779,0.487,0.979,0.701,0.316,0.564,0.526,�k��,6.9,��
2023/11/20,14:10,0.516,0.778,0.487,0.980,0.700,0.317,0.563,0.527,�k��,8.4,��
2023/11/20,14:20,0.516,0.780,0.488,0.981,0.702,0.315,0.563,0.527,�k��,9.5,��
2023/11/20,14:30,0.517,0.781,0.487,0.980,0.700,0.315,0.562,0.526,�k��,9.6,��
2023/11/20,14:40,0.516,0.779,0.487,0.979,0.703,0.316,0.563,0.527,�k��,7.7,��
2023/11/20,14:50,0.516,0.779,0.489,0.978,0.702,0.315,0.564,0.528,�k��,8.1,��
2023/11/20,15:00,0.516,0.781,0.488,0.980,0.701,0.315,0.563,0.529,�k��,7.9,�L
2023/11/20,15:10,0.515,0.782,0.488,0.981,0.702,0.315,0.564,0.530,�k��,5.7,�L
2023/11/20,15:20,0.518,0.783,0.488,0.980,0.702,0.314,0.565,0.530,�k��,6.0,��
2023/11/20,15:30,0.518,0.783,0.488,0.980,0.704,0.314,0.563,0.529,�k��,5.9,��
2023/11/20,15:40,0.517,0.783,0.489,0.978,0.702,0.315,0.564,0.527,�k��,7.5,��
2023/11/20,15:50,0.518,0.784,0.487,0.980,0.701,0.314,0.565,0.528,�k�k��,6.8,��
2023/11/20,16:00,0.517,0.783,0.488,0.979,0.702,0.314,0.564,0.528,�k�k��,7.7,��
2023/11/20,16:10,0.516,0.784,0.488,0.980,0.702,0.314,0.564,0.528,�k��,5.8,��
2023/11/20,16:20,0.516,0.781,0.486,0.979,0.702,0.315,0.564,0.528,�k��,8.0,��
2023/11/20,16:30,0.515,0.782,0.488,0.978,0.701,0.315,0.566,0.526,�k��,9.7,��
2023/11/20,16:40,0.516,0.783,0.487,0.979,0.703,0.313,0.564,0.526,�k�k��,9.3,��
2023/11/20,16:50,0.517,0.784,0.487,0.978,0.700,0.312,0.566,0.526,�k��,10.3,��
2023/11/20,17:00,0.516,0.784,0.487,0.982,0.701,0.314,0.565,0.526,�k�k��,8.0,��
2023/11/20,17:10,0.516,0.783,0.489,0.982,0.701,0.314,0.565,0.527,�k�k��,7.7,��
2023/11/20,17:20,0.516,0.784,0.488,0.979,0.700,0.314,0.564,0.528,�k�k��,7.3,��
2023/11/20,17:30,0.516,0.784,0.487,0.981,0.701,0.314,0.563,0.528,�k�k��,7.4,��
2023/11/20,17:40,0.515,0.784,0.487,0.980,0.702,0.315,0.565,0.526,�k�k��,6.7,��
2023/11/20,17:50,0.515,0.784,0.486,0.979,0.702,0.314,0.564,0.526,�k�k��,5.0,��
2023/11/20,18:00,0.516,0.783,0.487,0.979,0.699,0.313,0.564,0.526,�k,6.0,��
2023/11/20,18:10,0.516,0.783,0.486,0.980,0.701,0.313,0.565,0.526,�k,5.5,��
2023/11/20,18:20,0.516,0.783,0.486,0.979,0.700,0.313,0.564,0.525,�k,6.6,��
2023/11/20,18:30,0.516,0.782,0.487,0.980,0.700,0.315,0.564,0.525,�k,5.8,��
2023/11/20,18:40,0.516,0.783,0.484,0.980,0.700,0.314,0.564,0.526,�k�k��,4.2,��
2023/11/20,18:50,0.515,0.782,0.486,0.978,0.700,0.313,0.564,0.527,�k�k��,5.5,��
2023/11/20,19:00,0.518,0.781,0.484,0.982,0.700,0.315,0.564,0.524,�k,5.1,��
2023/11/20,19:10,0.515,0.784,0.487,0.979,0.699,0.313,0.563,0.527,�k�k��,5.4,��
2023/11/20,19:20,0.516,0.782,0.487,0.979,0.703,0.314,0.564,0.526,�k�k��,4.9,��
2023/11/20,19:30,0.516,0.783,0.487,0.981,0.700,0.314,0.562,0.525,�k�k��,6.0,��
2023/11/20,19:40,0.515,0.783,0.486,0.979,0.701,0.312,0.563,0.526,�k��,4.7,��
2023/11/20,19:50,0.515,0.783,0.486,0.978,0.701,0.314,0.562,0.525,�k��,3.4,��
2023/11/20,20:00,0.516,0.783,0.484,0.979,0.700,0.314,0.564,0.526,�k��,3.1,��
2023/11/20,20:10,0.514,0.781,0.485,0.978,0.700,0.314,0.563,0.524,�k�k��,4.3,��
2023/11/20,20:20,0.515,0.783,0.485,0.977,0.700,0.314,0.563,0.526,�k�k��,4.1,��
2023/11/20,20:30,0.515,0.781,0.486,0.980,0.701,0.313,0.563,0.524,�k�k��,3.5,��
2023/11/20,20:40,0.516,0.781,0.486,0.980,0.702,0.313,0.564,0.525,�k�k��,0.9,��
2023/11/20,20:50,0.515,0.784,0.486,0.981,0.701,0.313,0.563,0.525,�k�k��,1.7,��
2023/11/20,21:00,0.516,0.782,0.485,0.978,0.702,0.313,0.564,0.525,�k��,2.5,��
2023/11/20,21:10,0.514,0.782,0.486,0.980,0.699,0.314,0.563,0.526,�k��,2.5,��
2023/11/20,21:20,0.514,0.782,0.486,0.978,0.701,0.312,0.561,0.525,���k��,3.0,��
2023/11/20,21:30,0.513,0.779,0.486,0.980,0.700,0.314,0.563,0.526,���k��,3.0,��
2023/11/20,21:40,0.516,0.781,0.485,0.979,0.699,0.314,0.562,0.525,���k��,2.6,��
2023/11/20,21:50,0.514,0.784,0.485,0.979,0.702,0.312,0.564,0.524,���k��,1.5,��
2023/11/20,22:00,0.515,0.783,0.486,0.979,0.700,0.313,0.563,0.524,���k��,0.8,��
2023/11/20,22:10,0.517,0.781,0.486,0.980,0.700,0.313,0.563,0.525,�쐼,1.2,��
2023/11/20,22:20,0.513,0.781,0.485,0.979,0.703,0.312,0.563,0.525,��,2.3,��
2023/11/20,22:30,0.515,0.782,0.485,0.981,0.702,0.313,0.564,0.525,���쐼,2.6,��
2023/11/20,22:40,0.515,0.780,0.485,0.979,0.700,0.315,0.562,0.525,�쐼,3.0,��
2023/11/20,22:50,0.514,0.781,0.485,0.979,0.701,0.312,0.563,0.525,���쐼,1.5,��
2023/11/20,23:00,0.515,0.781,0.485,0.980,0.702,0.313,0.564,0.525,���k��,3.1,��
2023/11/20,23:10,0.514,0.781,0.486,0.980,0.702,0.313,0.564,0.524,���k��,2.6,��
2023/11/20,23:20,0.515,0.781,0.485,0.981,0.700,0.313,0.564,0.527,�k��,2.6,��
2023/11/20,23:30,0.515,0.783,0.484,0.978,0.701,0.314,0.563,0.523,�k��,2.2,��
2023/11/20,23:40,0.515,0.782,0.486,0.979,0.701,0.313,0.563,0.524,�k��,2.0,��
2023/11/20,23:50,0.514,0.781,0.484,0.980,0.702,0.312,0.562,0.524,���k��,2.3,��
